Location: Newark
(51.2625°N, 13.3939°E)
Time: 05:56:46
(UTC+00:00)

Explorer 7 - Pass Details

Date: 16 November 2019
Orbit: 485 x 680 km, 50.3° (Epoch: 10 December)

Event Time Altitude Azimuth Distance (km) Brightness Sun altitude
Rises 00:31:06 0° 221° (SW) 2,900 - -51.8°
Reaches altitude 10° 00:33:39 10° 211° (SSW) 1,962 - -51.6°
Maximum altitude 00:37:35 31° 150° (SSE) 1,050 - -51.2°
Drops below altitude 10° 00:41:20 10° 88° (E) 1,859 - -50.8°
Sets 00:43:42 0° 77° (ENE) 2,721 - -50.5°
